Tracking 30743 objects as of 21-Jun-2025
HD Live streaming from Space Station
objects crossing your sky now

NOAA 16 DEB

Track NOAA 16 DEB now!
10-day predictions


NORAD ID: 41084
Int'l Code: 2000-055AT
Perigee: 812.2 km
Apogee: 836.0 km
Inclination: 98.7 °
Period: 101.2 minutes
Semi major axis: 7195 km
RCS: Unknown
Launch date: September 21, 2000
Source: United States (US)
Launch site: AIR FORCE WESTERN TEST RANGE (AFWTR)

Note: This is SATELLITE DEBRIS
Your satellite tracking list
Your tracking list is empty




NASA's NSSDC Master Catalog

Two Line Element Set (TLE):
1 41084U 00055AT  25171.49028737  .00001003  00000-0  46908-3 0  9997
2 41084  98.7105 257.2969 0016537 183.9363 176.1687 14.22471573494722
Source of the keplerian elements: AFSPC